Hourly Data Report for October 14, 2019

All times are specified in Local Standard Time (LST). Add 1 hour to adjust for Daylight Saving Time where and when it is observed.

SEPT-ILES
QUEBEC
Current Station Operator: ECCC - MSC

50°13'00.000" N
66°15'00.000" W
52.60 m
7047914
71279
XZV

Download Data

Hourly Data (October 2019)
Hourly Data Report for October 14, 2019
TIME Temp Definition
°C
Dew Point Definition
°C
Rel Hum Definition
%
Wind Dir Definition
10's deg

Wind Spd Definition
km/h
Visibility Definition
km
Stn Press Definition
kPa
Hmdx Definition


Wind Chill Definition


Weather Definition


00:00 2.2 1.1 93   0   100.86     LegendNANA
01:00 1.2 0.2 93 31 6   100.89     LegendNANA
02:00 1.9 1.2 95 31 5   100.91     LegendNANA
03:00 1.3 0.7 95 33 5   100.92     LegendNANA
04:00 0.3 -0.4 95 36 1   100.95     LegendNANA
05:00 -1.0 -1.8 94 34 3   101.00   -2 LegendNANA
06:00 -1.4 -2.1 95 35 2   101.07   -2 LegendNANA
07:00 3.9 3.6 98 4 8   101.10     LegendNANA
08:00 8.1 5.8 85 5 3   101.14     LegendNANA
09:00 7.7 5.8 88 9 7   101.12     LegendNANA
10:00 9.2 6.4 83 7 9   101.14     LegendNANA
11:00 9.0 5.6 79 13 12   101.14     LegendNANA
12:00 10.7 6.5 75 9 8   101.09     LegendNANA
13:00 11.0 6.3 73 9 11   100.99     LegendNANA
14:00 8.5 6.8 89 8 13   101.02     LegendNANA
15:00 8.2 7.6 96 8 15   100.96     LegendNANA
16:00 9.3 7.8 90 8 16   100.93     LegendNANA
17:00 9.2 7.8 90 8 13   100.89     LegendNANA
18:00 8.6 7.6 94 9 18   100.85     LegendNANA
19:00 7.7 6.9 95 8 19   100.85     LegendNANA
20:00 7.5 6.8 95 8 21   100.84     LegendNANA
21:00 7.3 6.8 97 9 18   100.80     LegendNANA
22:00 7.5 6.9 96 9 17   100.73     LegendNANA
23:00 7.5 7.0 96 8 17   100.63     LegendNANA

Notes on Data Quality.

Legend

  • E = Estimated
  • M = Missing
  • NA = Not Available
Date modified: